Wetterdaten: Freitag, 26.06.2015
Datum Zeit Temp. A. Feuchte A. Luftdruck Regen Wind Richtung Richtung Sonnenschein ET UV Solar Taupunkt Windchill Windben Empfang
26.06.2015 00:00 13,8 C 78 % 1023,2 hPa 0,0 l/m 0,0 km/h (0 Bft) NO 43 0 min 0,000 mm 0,0 UV-I 0 W/m 10,0 C 13,8 C 0,0 km/h (0 Bft) 0,00 %
26.06.2015 00:05 13,7 C 79 % 1023,1 hPa 0,0 l/m 0,0 km/h (0 Bft) NO 41 0 min 0,000 mm 0,0 UV-I 0 W/m 10,1 C 13,7 C 0,0 km/h (0 Bft) 0,00 %
26.06.2015 00:10 13,7 C 78 % 1023,0 hPa 0,0 l/m 0,0 km/h (0 Bft) NO 45 0 min 0,000 mm 0,0 UV-I 0 W/m 9,9 C 13,7 C 0,0 km/h (0 Bft) 0,00 %
26.06.2015 00:15 13,5 C 77 % 1023,1 hPa 0,0 l/m 0,0 km/h (0 Bft) NO 34 0 min 0,000 mm 0,0 UV-I 0 W/m 9,5 C 13,5 C 0,0 km/h (0 Bft) 0,00 %
26.06.2015 00:20 13,4 C 78 % 1023,2 hPa 0,0 l/m 0,0 km/h (0 Bft) NO 52 0 min 0,000 mm 0,0 UV-I 0 W/m 9,6 C 13,4 C 0,0 km/h (0 Bft) 0,00 %
26.06.2015 00:25 13,2 C 78 % 1023,3 hPa 0,0 l/m 0,0 km/h (0 Bft) N-NO 32 0 min 0,000 mm 0,0 UV-I 0 W/m 9,4 C 13,2 C 0,0 km/h (0 Bft) 0,00 %
26.06.2015 00:30 13,1 C 81 % 1023,3 hPa 0,0 l/m 0,0 km/h (0 Bft) NO 41 0 min 0,000 mm 0,0 UV-I 0 W/m 9,9 C 13,1 C 0,0 km/h (0 Bft) 0,00 %
26.06.2015 00:35 12,9 C 82 % 1023,2 hPa 0,0 l/m 0,0 km/h (0 Bft) NO 41 0 min 0,000 mm 0,0 UV-I 0 W/m 9,9 C 12,9 C 0,0 km/h (0 Bft) 0,00 %
26.06.2015 00:40 12,8 C 82 % 1023,2 hPa 0,0 l/m 0,0 km/h (0 Bft) NO 45 0 min 0,000 mm 0,0 UV-I 0 W/m 9,8 C 12,8 C 0,0 km/h (0 Bft) 0,00 %
26.06.2015 00:45 12,6 C 82 % 1023,1 hPa 0,0 l/m 0,0 km/h (0 Bft) NO 38 0 min 0,000 mm 0,0 UV-I 0 W/m 9,6 C 12,6 C 0,0 km/h (0 Bft) 0,00 %
26.06.2015 00:50 12,5 C 82 % 1023,2 hPa 0,0 l/m 0,0 km/h (0 Bft) N-NW 346 0 min 0,000 mm 0,0 UV-I 0 W/m 9,5 C 12,5 C 0,0 km/h (0 Bft) 0,00 %
26.06.2015 00:55 12,5 C 81 % 1023,3 hPa 0,0 l/m 0,0 km/h (0 Bft) N-NO 33 0 min 0,000 mm 0,0 UV-I 0 W/m 9,3 C 12,5 C 0,0 km/h (0 Bft) 0,00 %
26.06.2015 01:00 12,4 C 81 % 1023,1 hPa 0,0 l/m 0,0 km/h (0 Bft) NO 42 0 min 0,000 mm 0,0 UV-I 0 W/m 9,2 C 12,4 C 0,0 km/h (0 Bft) 0,00 %
26.06.2015 01:05 12,4 C 81 % 1023,1 hPa 0,0 l/m 0,0 km/h (0 Bft) NO 49 0 min 0,000 mm 0,0 UV-I 0 W/m 9,2 C 12,4 C 0,0 km/h (0 Bft) 0,00 %
26.06.2015 01:10 12,4 C 81 % 1023,2 hPa 0,0 l/m 0,0 km/h (0 Bft) NO 51 0 min 0,000 mm 0,0 UV-I 0 W/m 9,2 C 12,4 C 0,0 km/h (0 Bft) 0,00 %
26.06.2015 01:15 12,4 C 82 % 1023,1 hPa 0,0 l/m 0,0 km/h (0 Bft) NO 48 0 min 0,000 mm 0,0 UV-I 0 W/m 9,4 C 12,4 C 0,0 km/h (0 Bft) 0,00 %
26.06.2015 01:20 12,3 C 82 % 1023,1 hPa 0,0 l/m 0,0 km/h (0 Bft) NO 42 0 min 0,000 mm 0,0 UV-I 0 W/m 9,3 C 12,3 C 0,0 km/h (0 Bft) 0,00 %
26.06.2015 01:25 12,3 C 82 % 1023,2 hPa 0,0 l/m 0,0 km/h (0 Bft) NO 43 0 min 0,000 mm 0,0 UV-I 0 W/m 9,3 C 12,3 C 0,0 km/h (0 Bft) 0,00 %
26.06.2015 01:30 12,1 C 82 % 1023,1 hPa 0,0 l/m 0,0 km/h (0 Bft) NO 46 0 min 0,000 mm 0,0 UV-I 0 W/m 9,1 C 12,1 C 0,0 km/h (0 Bft) 0,00 %
26.06.2015 01:35 12,0 C 82 % 1023,1 hPa 0,0 l/m 0,0 km/h (0 Bft) NO 51 0 min 0,000 mm 0,0 UV-I 0 W/m 9,0 C 12,0 C 0,0 km/h (0 Bft) 0,00 %
26.06.2015 01:40 11,8 C 82 % 1023,2 hPa 0,0 l/m 0,0 km/h (0 Bft) NO 48 0 min 0,000 mm 0,0 UV-I 0 W/m 8,8 C 11,8 C 0,0 km/h (0 Bft) 0,00 %
26.06.2015 01:45 11,6 C 82 % 1023,2 hPa 0,0 l/m 0,0 km/h (0 Bft) NO 52 0 min 0,000 mm 0,0 UV-I 0 W/m 8,6 C 11,6 C 0,0 km/h (0 Bft) 0,00 %
26.06.2015 01:50 11,4 C 82 % 1023,2 hPa 0,0 l/m 0,0 km/h (0 Bft) NO 48 0 min 0,000 mm 0,0 UV-I 0 W/m 8,4 C 11,4 C 0,0 km/h (0 Bft) 0,00 %
26.06.2015 01:55 11,3 C 82 % 1023,3 hPa 0,0 l/m 0,0 km/h (0 Bft) NO 44 0 min 0,000 mm 0,0 UV-I 0 W/m 8,3 C 11,3 C 0,0 km/h (0 Bft) 0,00 %
26.06.2015 02:00 11,2 C 83 % 1023,2 hPa 0,0 l/m 0,0 km/h (0 Bft) NO 41 0 min 0,000 mm 0,0 UV-I 0 W/m 8,4 C 11,2 C 0,0 km/h (0 Bft) 0,00 %
26.06.2015 02:05 11,1 C 83 % 1023,1 hPa 0,0 l/m 0,0 km/h (0 Bft) NO 49 0 min 0,000 mm 0,0 UV-I 0 W/m 8,3 C 11,1 C 0,0 km/h (0 Bft) 0,00 %
26.06.2015 02:10 11,1 C 83 % 1023,3 hPa 0,0 l/m 0,0 km/h (0 Bft) NO 48 0 min 0,000 mm 0,0 UV-I 0 W/m 8,3 C 11,1 C 0,0 km/h (0 Bft) 0,00 %
26.06.2015 02:15 11,0 C 85 % 1023,2 hPa 0,0 l/m 0,0 km/h (0 Bft) NO 42 0 min 0,000 mm 0,0 UV-I 0 W/m 8,6 C 11,0 C 0,0 km/h (0 Bft) 0,00 %
26.06.2015 02:20 10,9 C 86 % 1023,1 hPa 0,0 l/m 0,0 km/h (0 Bft) NO 44 0 min 0,000 mm 0,0 UV-I 0 W/m 8,7 C 10,9 C 0,0 km/h (0 Bft) 0,00 %
26.06.2015 02:25 10,8 C 86 % 1023,3 hPa 0,0 l/m 0,0 km/h (0 Bft) NO 46 0 min 0,000 mm 0,0 UV-I 0 W/m 8,6 C 10,8 C 0,0 km/h (0 Bft) 0,00 %
26.06.2015 02:30 10,7 C 86 % 1023,4 hPa 0,0 l/m 0,0 km/h (0 Bft) NO 45 0 min 0,000 mm 0,0 UV-I 0 W/m 8,5 C 10,7 C 0,0 km/h (0 Bft) 0,00 %
26.06.2015 02:35 10,5 C 87 % 1023,1 hPa 0,0 l/m 0,0 km/h (0 Bft) NO 44 0 min 0,000 mm 0,0 UV-I 0 W/m 8,4 C 10,5 C 0,0 km/h (0 Bft) 0,00 %
26.06.2015 02:40 10,4 C 87 % 1023,1 hPa 0,0 l/m 0,0 km/h (0 Bft) NO 49 0 min 0,000 mm 0,0 UV-I 0 W/m 8,3 C 10,4 C 0,0 km/h (0 Bft) 0,00 %
26.06.2015 02:45 10,3 C 88 % 1023,1 hPa 0,0 l/m 0,0 km/h (0 Bft) NO 47 0 min 0,000 mm 0,0 UV-I 0 W/m 8,4 C 10,3 C 0,0 km/h (0 Bft) 0,00 %
26.06.2015 02:50 10,2 C 88 % 1023,2 hPa 0,0 l/m 0,0 km/h (0 Bft) NO 46 0 min 0,000 mm 0,0 UV-I 0 W/m 8,3 C 10,2 C 0,0 km/h (0 Bft) 0,00 %
26.06.2015 02:55 10,2 C 88 % 1023,1 hPa 0,0 l/m 0,0 km/h (0 Bft) NO 43 0 min 0,000 mm 0,0 UV-I 0 W/m 8,3 C 10,2 C 0,0 km/h (0 Bft) 0,00 %
26.06.2015 03:00 10,1 C 88 % 1023,1 hPa 0,0 l/m 0,0 km/h (0 Bft) NO 44 0 min 0,000 mm 0,0 UV-I 0 W/m 8,2 C 10,1 C 0,0 km/h (0 Bft) 0,00 %
26.06.2015 03:05 10,1 C 89 % 1023,1 hPa 0,0 l/m 0,0 km/h (0 Bft) NO 44 0 min 0,000 mm 0,0 UV-I 0 W/m 8,4 C 10,1 C 0,0 km/h (0 Bft) 0,00 %
26.06.2015 03:10 10,1 C 89 % 1023,1 hPa 0,0 l/m 0,0 km/h (0 Bft) NO 41 0 min 0,000 mm 0,0 UV-I 0 W/m 8,4 C 10,1 C 0,0 km/h (0 Bft) 0,00 %
26.06.2015 03:15 10,1 C 89 % 1023,1 hPa 0,0 l/m 0,0 km/h (0 Bft) NO 54 0 min 0,000 mm 0,0 UV-I 0 W/m 8,4 C 10,1 C 0,0 km/h (0 Bft) 0,00 %
26.06.2015 03:20 10,1 C 90 % 1023,0 hPa 0,0 l/m 0,0 km/h (0 Bft) NO 52 0 min 0,000 mm 0,0 UV-I 0 W/m 8,5 C 10,1 C 0,0 km/h (0 Bft) 0,00 %
26.06.2015 03:25 10,1 C 90 % 1023,0 hPa 0,0 l/m 0,0 km/h (0 Bft) NO 52 0 min 0,000 mm 0,0 UV-I 0 W/m 8,5 C 10,1 C 0,0 km/h (0 Bft) 0,00 %
26.06.2015 03:30 10,0 C 90 % 1023,0 hPa 0,0 l/m 0,0 km/h (0 Bft) NO 52 0 min 0,000 mm 0,0 UV-I 0 W/m 8,4 C 10,0 C 0,0 km/h (0 Bft) 0,00 %
26.06.2015 03:35 10,0 C 90 % 1022,9 hPa 0,0 l/m 0,0 km/h (0 Bft) NO 53 0 min 0,000 mm 0,0 UV-I 0 W/m 8,4 C 10,0 C 0,0 km/h (0 Bft) 0,00 %
26.06.2015 03:40 10,0 C 90 % 1023,0 hPa 0,0 l/m 0,0 km/h (0 Bft) NO 53 0 min 0,000 mm 0,0 UV-I 0 W/m 8,4 C 10,0 C 0,0 km/h (0 Bft) 0,00 %
26.06.2015 03:45 10,0 C 91 % 1023,0 hPa 0,0 l/m 0,0 km/h (0 Bft) O-NO 57 0 min 0,000 mm 0,0 UV-I 0 W/m 8,6 C 10,0 C 0,0 km/h (0 Bft) 0,00 %
26.06.2015 03:50 10,0 C 91 % 1022,8 hPa 0,0 l/m 0,0 km/h (0 Bft) O-NO 57 0 min 0,000 mm 0,0 UV-I 0 W/m 8,6 C 10,0 C 0,0 km/h (0 Bft) 0,00 %
26.06.2015 03:55 9,9 C 91 % 1022,7 hPa 0,0 l/m 0,0 km/h (0 Bft) NO 45 0 min 0,000 mm 0,0 UV-I 0 W/m 8,5 C 9,9 C 0,0 km/h (0 Bft) 0,00 %
26.06.2015 04:00 9,9 C 90 % 1022,9 hPa 0,0 l/m 0,0 km/h (0 Bft) NO 49 0 min 0,000 mm 0,0 UV-I 0 W/m 8,3 C 9,9 C 0,0 km/h (0 Bft) 0,00 %
26.06.2015 04:05 9,9 C 90 % 1022,9 hPa 0,0 l/m 0,0 km/h (0 Bft) NO 49 0 min 0,000 mm 0,0 UV-I 0 W/m 8,3 C 9,9 C 0,0 km/h (0 Bft) 0,00 %
26.06.2015 04:10 9,9 C 91 % 1022,9 hPa 0,0 l/m 0,0 km/h (0 Bft) NO 50 0 min 0,000 mm 0,0 UV-I 0 W/m 8,5 C 9,9 C 0,0 km/h (0 Bft) 0,00 %
26.06.2015 04:15 9,9 C 91 % 1022,9 hPa 0,0 l/m 0,0 km/h (0 Bft) NO 50 0 min 0,000 mm 0,0 UV-I 0 W/m 8,5 C 9,9 C 0,0 km/h (0 Bft) 0,00 %
26.06.2015 04:20 9,9 C 91 % 1022,9 hPa 0,0 l/m 0,0 km/h (0 Bft) NO 50 0 min 0,000 mm 0,0 UV-I 0 W/m 8,5 C 9,9 C 0,0 km/h (0 Bft) 0,00 %
26.06.2015 04:25 9,8 C 91 % 1023,1 hPa 0,0 l/m 0,0 km/h (0 Bft) NO 52 0 min 0,000 mm 0,0 UV-I 0 W/m 8,4 C 9,8 C 0,0 km/h (0 Bft) 0,00 %
26.06.2015 04:30 9,7 C 91 % 1023,0 hPa 0,0 l/m 0,0 km/h (0 Bft) NO 48 0 min 0,000 mm 0,0 UV-I 0 W/m 8,3 C 9,7 C 0,0 km/h (0 Bft) 0,00 %
26.06.2015 04:35 9,6 C 91 % 1023,1 hPa 0,0 l/m 0,0 km/h (0 Bft) NO 53 0 min 0,000 mm 0,0 UV-I 0 W/m 8,2 C 9,6 C 0,0 km/h (0 Bft) 0,00 %
26.06.2015 04:40 9,6 C 92 % 1023,1 hPa 0,0 l/m 0,0 km/h (0 Bft) NO 53 0 min 0,000 mm 0,0 UV-I 0 W/m 8,4 C 9,6 C 0,0 km/h (0 Bft) 0,00 %
26.06.2015 04:45 9,6 C 92 % 1022,9 hPa 0,0 l/m 0,0 km/h (0 Bft) NO 53 0 min 0,000 mm 0,0 UV-I 0 W/m 8,4 C 9,6 C 0,0 km/h (0 Bft) 0,00 %
26.06.2015 04:50 9,6 C 92 % 1023,0 hPa 0,0 l/m 0,0 km/h (0 Bft) NO 43 0 min 0,000 mm 0,0 UV-I 0 W/m 8,4 C 9,6 C 0,0 km/h (0 Bft) 0,00 %
26.06.2015 04:55 9,6 C 92 % 1023,1 hPa 0,0 l/m 0,0 km/h (0 Bft) N 355 0 min 0,000 mm 0,0 UV-I 0 W/m 8,4 C 9,6 C 0,0 km/h (0 Bft) 0,00 %
26.06.2015 05:00 9,6 C 92 % 1023,0 hPa 0,0 l/m 0,0 km/h (0 Bft) O-NO 58 0 min 0,000 mm 0,0 UV-I 0 W/m 8,4 C 9,6 C 0,0 km/h (0 Bft) 0,00 %
26.06.2015 05:05 9,6 C 92 % 1023,0 hPa 0,0 l/m 0,0 km/h (0 Bft) NO 44 0 min 0,000 mm 0,0 UV-I 0 W/m 8,4 C 9,6 C 0,0 km/h (0 Bft) 0,00 %
26.06.2015 05:10 9,6 C 93 % 1022,9 hPa 0,0 l/m 0,0 km/h (0 Bft) NO 54 0 min 0,000 mm 0,0 UV-I 0 W/m 8,5 C 9,6 C 0,0 km/h (0 Bft) 0,00 %
26.06.2015 05:15 9,6 C 93 % 1023,2 hPa 0,0 l/m 0,0 km/h (0 Bft) NO 48 0 min 0,000 mm 0,0 UV-I 2 W/m 8,5 C 9,6 C 0,0 km/h (0 Bft) 0,00 %
26.06.2015 05:20 9,6 C 93 % 1023,1 hPa 0,0 l/m 0,0 km/h (0 Bft) NO 44 0 min 0,000 mm 0,0 UV-I 6 W/m 8,5 C 9,6 C 0,0 km/h (0 Bft) 0,00 %
26.06.2015 05:25 9,6 C 93 % 1023,0 hPa 0,0 l/m 0,0 km/h (0 Bft) NO 46 0 min 0,000 mm 0,0 UV-I 11 W/m 8,5 C 9,6 C 0,0 km/h (0 Bft) 0,00 %
26.06.2015 05:30 9,8 C 92 % 1023,0 hPa 0,0 l/m 0,0 km/h (0 Bft) NO 42 0 min 0,000 mm 0,0 UV-I 21 W/m 8,6 C 9,8 C 0,0 km/h (0 Bft) 0,00 %
26.06.2015 05:35 10,0 C 92 % 1023,0 hPa 0,0 l/m 0,0 km/h (0 Bft) N-NO 32 0 min 0,000 mm 0,0 UV-I 28 W/m 8,8 C 10,0 C 0,0 km/h (0 Bft) 0,00 %
26.06.2015 05:40 10,2 C 92 % 1023,0 hPa 0,0 l/m 0,0 km/h (0 Bft) NO 36 5 min 0,000 mm 0,0 UV-I 38 W/m 9,0 C 10,2 C 0,0 km/h (0 Bft) 0,00 %
26.06.2015 05:45 10,4 C 92 % 1023,0 hPa 0,0 l/m 0,0 km/h (0 Bft) NO 40 5 min 0,000 mm 0,0 UV-I 64 W/m 9,2 C 10,4 C 0,0 km/h (0 Bft) 0,00 %
26.06.2015 05:50 10,7 C 90 % 1022,9 hPa 0,0 l/m 0,0 km/h (0 Bft) NO 40 5 min 0,000 mm 0,0 UV-I 99 W/m 9,1 C 10,7 C 0,0 km/h (0 Bft) 0,00 %
26.06.2015 05:55 11,1 C 89 % 1022,9 hPa 0,0 l/m 0,0 km/h (0 Bft) N-NO 30 5 min 0,000 mm 0,0 UV-I 126 W/m 9,4 C 11,1 C 0,0 km/h (0 Bft) 0,00 %
26.06.2015 06:00 11,8 C 87 % 1022,7 hPa 0,0 l/m 0,0 km/h (0 Bft) N 355 5 min 0,000 mm 0,0 UV-I 133 W/m 9,7 C 11,8 C 0,0 km/h (0 Bft) 0,00 %
26.06.2015 06:05 12,4 C 84 % 1022,8 hPa 0,0 l/m 0,0 km/h (0 Bft) NO 50 5 min 0,000 mm 0,0 UV-I 196 W/m 9,8 C 12,4 C 0,0 km/h (0 Bft) 0,00 %
26.06.2015 06:10 12,8 C 80 % 1022,8 hPa 0,0 l/m 0,0 km/h (0 Bft) N-NO 26 5 min 0,000 mm 0,0 UV-I 218 W/m 9,4 C 12,8 C 0,0 km/h (0 Bft) 0,00 %
26.06.2015 06:15 13,3 C 76 % 1022,5 hPa 0,0 l/m 0,0 km/h (0 Bft) N 353 5 min 0,000 mm 0,0 UV-I 246 W/m 9,2 C 13,3 C 0,0 km/h (0 Bft) 0,00 %
26.06.2015 06:20 14,0 C 74 % 1022,5 hPa 0,0 l/m 0,0 km/h (0 Bft) NO 43 5 min 0,000 mm 1,0 UV-I 231 W/m 9,4 C 14,0 C 0,0 km/h (0 Bft) 0,00 %
26.06.2015 06:25 14,6 C 71 % 1022,4 hPa 0,0 l/m 0,0 km/h (0 Bft) O-NO 72 5 min 0,000 mm 1,0 UV-I 136 W/m 9,4 C 14,6 C 0,0 km/h (0 Bft) 0,00 %
26.06.2015 06:30 15,0 C 70 % 1022,2 hPa 0,0 l/m 0,0 km/h (0 Bft) NO 44 5 min 0,000 mm 1,0 UV-I 277 W/m 9,6 C 15,0 C 0,0 km/h (0 Bft) 0,00 %
26.06.2015 06:35 15,0 C 71 % 1022,3 hPa 0,0 l/m 0,4 km/h (0 Bft) W-NW 300 5 min 0,000 mm 1,0 UV-I 333 W/m 9,8 C 15,0 C 4,0 km/h (1 Bft) 0,00 %
26.06.2015 06:40 15,0 C 71 % 1022,2 hPa 0,0 l/m 0,0 km/h (0 Bft) N-NO 25 5 min 0,000 mm 1,0 UV-I 350 W/m 9,8 C 15,0 C 0,0 km/h (0 Bft) 0,00 %
26.06.2015 06:45 15,1 C 70 % 1022,2 hPa 0,0 l/m 0,0 km/h (0 Bft) O-NO 76 5 min 0,000 mm 1,0 UV-I 369 W/m 9,7 C 15,1 C 0,0 km/h (0 Bft) 0,00 %
26.06.2015 06:50 15,5 C 69 % 1022,2 hPa 0,0 l/m 0,0 km/h (0 Bft) NO 42 5 min 0,000 mm 1,0 UV-I 266 W/m 9,8 C 15,5 C 0,0 km/h (0 Bft) 0,00 %
26.06.2015 06:55 16,0 C 68 % 1022,2 hPa 0,0 l/m 0,0 km/h (0 Bft) N-NO 31 5 min 0,000 mm 1,0 UV-I 188 W/m 10,1 C 16,0 C 0,0 km/h (0 Bft) 0,00 %
26.06.2015 07:00 16,6 C 65 % 1022,0 hPa 0,0 l/m 0,0 km/h (0 Bft) NO 43 5 min 0,000 mm 1,0 UV-I 176 W/m 10,0 C 16,6 C 0,0 km/h (0 Bft) 0,00 %
26.06.2015 07:05 16,9 C 64 % 1022,1 hPa 0,0 l/m 0,0 km/h (0 Bft) NO 46 5 min 0,000 mm 1,0 UV-I 182 W/m 10,0 C 16,9 C 0,0 km/h (0 Bft) 0,00 %
26.06.2015 07:10 16,9 C 65 % 1022,1 hPa 0,0 l/m 0,0 km/h (0 Bft) N 358 5 min 0,000 mm 1,0 UV-I 420 W/m 10,3 C 16,9 C 0,0 km/h (0 Bft) 0,00 %
26.06.2015 07:15 16,7 C 67 % 1022,0 hPa 0,0 l/m 0,0 km/h (0 Bft) NO 46 5 min 0,000 mm 1,0 UV-I 441 W/m 10,5 C 16,7 C 0,0 km/h (0 Bft) 0,00 %
26.06.2015 07:20 16,6 C 65 % 1022,1 hPa 0,0 l/m 4,0 km/h (1 Bft) W-SW 246 5 min 0,000 mm 1,0 UV-I 439 W/m 10,0 C 16,6 C 7,9 km/h (2 Bft) 0,00 %
26.06.2015 07:25 16,9 C 65 % 1022,2 hPa 0,0 l/m 0,0 km/h (0 Bft) N 352 5 min 0,000 mm 1,0 UV-I 411 W/m 10,3 C 16,9 C 0,0 km/h (0 Bft) 0,00 %
26.06.2015 07:30 17,3 C 63 % 1022,0 hPa 0,0 l/m 0,4 km/h (0 Bft) N-NW 348 0 min 0,000 mm 1,0 UV-I 186 W/m 10,2 C 17,3 C 4,0 km/h (1 Bft) 0,00 %
26.06.2015 07:35 17,6 C 64 % 1022,1 hPa 0,0 l/m 0,0 km/h (0 Bft) N 349 5 min 0,000 mm 1,0 UV-I 460 W/m 10,7 C 17,6 C 0,0 km/h (0 Bft) 0,00 %
26.06.2015 07:40 17,6 C 64 % 1022,2 hPa 0,0 l/m 0,0 km/h (0 Bft) O-NO 68 5 min 0,000 mm 1,0 UV-I 433 W/m 10,7 C 17,6 C 0,0 km/h (0 Bft) 0,00 %
26.06.2015 07:45 17,8 C 62 % 1022,2 hPa 0,0 l/m 0,0 km/h (0 Bft) NO 36 5 min 0,000 mm 1,0 UV-I 446 W/m 10,4 C 17,8 C 0,0 km/h (0 Bft) 0,00 %
26.06.2015 07:50 18,2 C 61 % 1022,2 hPa 0,0 l/m 0,0 km/h (0 Bft) N-NO 18 5 min 0,000 mm 1,0 UV-I 463 W/m 10,6 C 18,2 C 0,0 km/h (0 Bft) 0,00 %
26.06.2015 07:55 18,8 C 56 % 1022,1 hPa 0,0 l/m 0,4 km/h (0 Bft) N-NW 337 5 min 0,000 mm 1,0 UV-I 464 W/m 9,8 C 18,8 C 4,0 km/h (1 Bft) 0,00 %
26.06.2015 08:00 19,1 C 57 % 1022,1 hPa 0,0 l/m 0,0 km/h (0 Bft) NW 315 5 min 0,000 mm 1,0 UV-I 392 W/m 10,4 C 19,1 C 0,0 km/h (0 Bft) 0,00 %
26.06.2015 08:05 19,1 C 56 % 1021,9 hPa 0,0 l/m 0,4 km/h (0 Bft) N-NW 345 5 min 0,000 mm 1,0 UV-I 480 W/m 10,1 C 19,1 C 4,0 km/h (1 Bft) 0,00 %
26.06.2015 08:10 19,1 C 55 % 1022,0 hPa 0,0 l/m 0,0 km/h (0 Bft) N-NW 345 5 min 0,000 mm 2,0 UV-I 502 W/m 9,8 C 19,1 C 0,0 km/h (0 Bft) 0,00 %
26.06.2015 08:15 19,4 C 53 % 1021,9 hPa 0,0 l/m 4,0 km/h (1 Bft) SW 226 5 min 0,000 mm 2,0 UV-I 504 W/m 9,6 C 19,4 C 4,0 km/h (1 Bft) 0,00 %
26.06.2015 08:20 19,8 C 54 % 1022,0 hPa 0,0 l/m 2,2 km/h (1 Bft) NW 326 5 min 0,000 mm 2,0 UV-I 517 W/m 10,2 C 19,8 C 4,0 km/h (1 Bft) 0,00 %
26.06.2015 08:25 19,9 C 54 % 1022,0 hPa 0,0 l/m 0,4 km/h (0 Bft) NW 320 5 min 0,000 mm 2,0 UV-I 535 W/m 10,3 C 19,9 C 4,0 km/h (1 Bft) 0,00 %
26.06.2015 08:30 19,9 C 51 % 1022,1 hPa 0,0 l/m 0,0 km/h (0 Bft) N-NO 19 5 min 0,000 mm 2,0 UV-I 547 W/m 9,5 C 19,9 C 0,0 km/h (0 Bft) 0,00 %
26.06.2015 08:35 20,1 C 50 % 1021,9 hPa 0,0 l/m 0,0 km/h (0 Bft) N-NO 30 5 min 0,000 mm 2,0 UV-I 550 W/m 9,3 C 20,1 C 0,0 km/h (0 Bft) 0,00 %
26.06.2015 08:40 20,4 C 50 % 1021,9 hPa 0,0 l/m 0,0 km/h (0 Bft) NO 40 0 min 0,000 mm 2,0 UV-I 233 W/m 9,6 C 20,4 C 0,0 km/h (0 Bft) 0,00 %
26.06.2015 08:45 20,4 C 52 % 1021,8 hPa 0,0 l/m 0,0 km/h (0 Bft) O 83 5 min 0,000 mm 2,0 UV-I 516 W/m 10,2 C 20,4 C 0,0 km/h (0 Bft) 0,00 %
26.06.2015 08:50 20,4 C 51 % 1021,9 hPa 0,0 l/m 0,0 km/h (0 Bft) NO 46 5 min 0,000 mm 2,0 UV-I 440 W/m 9,9 C 20,4 C 0,0 km/h (0 Bft) 0,00 %
26.06.2015 08:55 20,4 C 51 % 1021,8 hPa 0,0 l/m 0,0 km/h (0 Bft) N-NO 23 5 min 0,000 mm 2,0 UV-I 542 W/m 9,9 C 20,4 C 0,0 km/h (0 Bft) 0,00 %
26.06.2015 09:00 20,2 C 52 % 1022,0 hPa 0,0 l/m 0,0 km/h (0 Bft) NO 56 5 min 0,000 mm 2,0 UV-I 559 W/m 10,0 C 20,2 C 0,0 km/h (0 Bft) 0,00 %
26.06.2015 09:05 20,1 C 52 % 1022,0 hPa 0,0 l/m 0,4 km/h (0 Bft) N 351 5 min 0,000 mm 2,0 UV-I 592 W/m 9,9 C 20,1 C 4,0 km/h (1 Bft) 0,00 %
26.06.2015 09:10 20,3 C 51 % 1021,9 hPa 0,0 l/m 0,4 km/h (0 Bft) N-NO 12 5 min 0,000 mm 2,0 UV-I 436 W/m 9,8 C 20,3 C 4,0 km/h (1 Bft) 0,00 %
26.06.2015 09:15 20,7 C 49 % 1021,9 hPa 0,0 l/m 0,0 km/h (0 Bft) O-NO 62 5 min 0,000 mm 2,0 UV-I 590 W/m 9,6 C 20,7 C 0,0 km/h (0 Bft) 0,00 %
26.06.2015 09:20 20,8 C 51 % 1021,9 hPa 0,0 l/m 3,2 km/h (1 Bft) N 350 5 min 0,000 mm 2,0 UV-I 597 W/m 10,3 C 20,8 C 4,0 km/h (1 Bft) 0,00 %
26.06.2015 09:25 20,9 C 50 % 1021,9 hPa 0,0 l/m 2,2 km/h (1 Bft) W-SW 256 5 min 0,000 mm 2,0 UV-I 595 W/m 10,1 C 20,9 C 4,0 km/h (1 Bft) 0,00 %
26.06.2015 09:30 21,2 C 48 % 1021,8 hPa 0,0 l/m 0,0 km/h (0 Bft) N 351 5 min 0,000 mm 2,0 UV-I 602 W/m 9,7 C 21,2 C 0,0 km/h (0 Bft) 0,00 %
26.06.2015 09:35 21,5 C 48 % 1021,7 hPa 0,0 l/m 3,2 km/h (1 Bft) W-NW 287 5 min 0,000 mm 3,0 UV-I 613 W/m 10,0 C 21,5 C 7,9 km/h (2 Bft) 0,00 %
26.06.2015 09:40 21,7 C 51 % 1021,6 hPa 0,0 l/m 0,7 km/h (0 Bft) N-NW 335 5 min 0,000 mm 3,0 UV-I 595 W/m 11,1 C 21,7 C 4,0 km/h (1 Bft) 0,00 %
26.06.2015 09:45 21,8 C 47 % 1021,8 hPa 0,0 l/m 1,4 km/h (1 Bft) NO 36 5 min 0,000 mm 3,0 UV-I 636 W/m 10,0 C 21,8 C 4,0 km/h (1 Bft) 0,00 %
26.06.2015 09:50 21,9 C 49 % 1021,7 hPa 0,0 l/m 2,9 km/h (1 Bft) W 275 5 min 0,000 mm 3,0 UV-I 620 W/m 10,7 C 21,9 C 4,0 km/h (1 Bft) 0,00 %
26.06.2015 09:55 22,0 C 50 % 1021,6 hPa 0,0 l/m 0,0 km/h (0 Bft) NO 56 5 min 0,000 mm 3,0 UV-I 637 W/m 11,1 C 22,0 C 0,0 km/h (0 Bft) 0,00 %
26.06.2015 10:00 22,3 C 46 % 1021,6 hPa 0,0 l/m 0,0 km/h (0 Bft) W-SW 256 5 min 0,000 mm 3,0 UV-I 649 W/m 10,1 C 22,3 C 0,0 km/h (0 Bft) 0,00 %
26.06.2015 10:05 22,6 C 49 % 1021,4 hPa 0,0 l/m 0,0 km/h (0 Bft) N-NW 347 5 min 0,000 mm 3,0 UV-I 665 W/m 11,3 C 22,6 C 0,0 km/h (0 Bft) 0,00 %
26.06.2015 10:10 22,6 C 48 % 1021,4 hPa 0,0 l/m 0,0 km/h (0 Bft) NO 40 5 min 0,000 mm 3,0 UV-I 678 W/m 11,0 C 22,6 C 0,0 km/h (0 Bft) 0,00 %
26.06.2015 10:15 22,9 C 48 % 1021,2 hPa 0,0 l/m 0,0 km/h (0 Bft) O-NO 58 5 min 0,000 mm 3,0 UV-I 685 W/m 11,3 C 22,9 C 0,0 km/h (0 Bft) 0,00 %
26.06.2015 10:20 23,3 C 47 % 1021,3 hPa 0,0 l/m 0,0 km/h (0 Bft) N-NW 334 5 min 0,000 mm 3,0 UV-I 696 W/m 11,3 C 23,3 C 0,0 km/h (0 Bft) 0,00 %
26.06.2015 10:25 23,5 C 45 % 1021,1 hPa 0,0 l/m 0,0 km/h (0 Bft) NW 326 5 min 0,000 mm 3,0 UV-I 691 W/m 10,9 C 23,5 C 0,0 km/h (0 Bft) 0,00 %
26.06.2015 10:30 23,7 C 43 % 1021,1 hPa 0,0 l/m 2,9 km/h (1 Bft) N 353 5 min 0,000 mm 3,0 UV-I 702 W/m 10,4 C 23,7 C 4,0 km/h (1 Bft) 0,00 %
26.06.2015 10:35 23,9 C 46 % 1021,0 hPa 0,0 l/m 3,2 km/h (1 Bft) W-SW 256 5 min 0,000 mm 4,0 UV-I 688 W/m 11,6 C 23,9 C 7,9 km/h (2 Bft) 0,00 %
26.06.2015 10:40 24,0 C 48 % 1020,9 hPa 0,0 l/m 0,0 km/h (0 Bft) NO 52 5 min 0,000 mm 4,0 UV-I 728 W/m 12,3 C 24,0 C 0,0 km/h (0 Bft) 0,00 %
26.06.2015 10:45 24,0 C 42 % 1020,9 hPa 0,0 l/m 0,0 km/h (0 Bft) N-NW 347 5 min 0,000 mm 4,0 UV-I 728 W/m 10,3 C 24,0 C 0,0 km/h (0 Bft) 0,00 %
26.06.2015 10:50 24,1 C 42 % 1020,9 hPa 0,0 l/m 0,0 km/h (0 Bft) NO 47 5 min 0,000 mm 4,0 UV-I 755 W/m 10,4 C 24,1 C 0,0 km/h (0 Bft) 0,00 %
26.06.2015 10:55 24,2 C 41 % 1020,9 hPa 0,0 l/m 0,4 km/h (0 Bft) O-SO 103 5 min 0,000 mm 4,0 UV-I 753 W/m 10,1 C 24,2 C 4,0 km/h (1 Bft) 0,00 %
26.06.2015 11:00 24,4 C 40 % 1020,6 hPa 0,0 l/m 0,7 km/h (0 Bft) S-SW 204 5 min 0,000 mm 4,0 UV-I 742 W/m 9,9 C 24,4 C 4,0 km/h (1 Bft) 0,00 %
26.06.2015 11:05 24,2 C 42 % 1020,5 hPa 0,0 l/m 4,3 km/h (1 Bft) N-NW 340 5 min 0,000 mm 4,0 UV-I 756 W/m 10,5 C 24,2 C 7,9 km/h (2 Bft) 0,00 %
26.06.2015 11:10 24,2 C 41 % 1020,5 hPa 0,0 l/m 0,4 km/h (0 Bft) N-NW 327 5 min 0,000 mm 4,0 UV-I 752 W/m 10,1 C 24,2 C 4,0 km/h (1 Bft) 0,00 %
26.06.2015 11:15 24,1 C 41 % 1020,5 hPa 0,0 l/m 0,0 km/h (0 Bft) O 79 5 min 0,000 mm 4,0 UV-I 741 W/m 10,0 C 24,1 C 0,0 km/h (0 Bft) 0,00 %
26.06.2015 11:20 24,2 C 38 % 1020,4 hPa 0,0 l/m 0,0 km/h (0 Bft) N 354 5 min 0,000 mm 2,0 UV-I 832 W/m 9,0 C 24,2 C 0,0 km/h (0 Bft) 0,00 %
26.06.2015 11:25 24,3 C 40 % 1020,4 hPa 0,0 l/m 4,0 km/h (1 Bft) W-NW 295 5 min 0,000 mm 5,0 UV-I 852 W/m 9,8 C 24,3 C 7,9 km/h (2 Bft) 0,00 %
26.06.2015 11:30 24,2 C 43 % 1020,4 hPa 0,0 l/m 4,0 km/h (1 Bft) W-NW 303 5 min 0,000 mm 5,0 UV-I 907 W/m 10,8 C 24,2 C 4,0 km/h (1 Bft) 0,00 %
26.06.2015 11:35 24,2 C 40 % 1020,3 hPa 0,0 l/m 1,8 km/h (1 Bft) N-NW 334 0 min 0,000 mm 5,0 UV-I 270 W/m 9,7 C 24,2 C 4,0 km/h (1 Bft) 0,00 %
26.06.2015 11:40 24,0 C 41 % 1020,4 hPa 0,0 l/m 5,4 km/h (1 Bft) SW 231 5 min 0,000 mm 5,0 UV-I 816 W/m 9,9 C 24,0 C 7,9 km/h (2 Bft) 0,00 %
26.06.2015 11:45 24,0 C 42 % 1020,2 hPa 0,0 l/m 0,7 km/h (0 Bft) W-SW 256 5 min 0,000 mm 5,0 UV-I 891 W/m 10,3 C 24,0 C 4,0 km/h (1 Bft) 0,00 %
26.06.2015 11:50 23,9 C 42 % 1020,2 hPa 0,0 l/m 0,0 km/h (0 Bft) N-NW 333 5 min 0,000 mm 5,0 UV-I 843 W/m 10,2 C 23,9 C 0,0 km/h (0 Bft) 0,00 %
26.06.2015 11:55 24,1 C 36 % 1020,2 hPa 0,0 l/m 0,0 km/h (0 Bft) NO 47 5 min 0,000 mm 5,0 UV-I 828 W/m 8,1 C 24,1 C 0,0 km/h (0 Bft) 0,00 %
26.06.2015 12:00 24,5 C 37 % 1020,1 hPa 0,0 l/m 4,0 km/h (1 Bft) W-SW 256 5 min 0,000 mm 5,0 UV-I 881 W/m 8,8 C 24,5 C 7,9 km/h (2 Bft) 0,00 %
26.06.2015 12:05 24,6 C 35 % 1020,0 hPa 0,0 l/m 0,0 km/h (0 Bft) SO 135 5 min 0,000 mm 5,0 UV-I 877 W/m 8,1 C 24,6 C 0,0 km/h (0 Bft) 0,00 %
26.06.2015 12:10 24,5 C 32 % 1019,9 hPa 0,0 l/m 0,4 km/h (0 Bft) S 178 5 min 0,000 mm 5,0 UV-I 967 W/m 6,7 C 24,5 C 4,0 km/h (1 Bft) 0,00 %
26.06.2015 12:15 24,5 C 33 % 1020,0 hPa 0,0 l/m 0,0 km/h (0 Bft) N-NO 14 5 min 0,000 mm 5,0 UV-I 957 W/m 7,2 C 24,5 C 0,0 km/h (0 Bft) 0,00 %
26.06.2015 12:20 24,5 C 40 % 1019,8 hPa 0,0 l/m 0,4 km/h (0 Bft) W-NW 302 5 min 0,000 mm 6,0 UV-I 886 W/m 10,0 C 24,5 C 4,0 km/h (1 Bft) 0,00 %
26.06.2015 12:25 24,7 C 37 % 1019,8 hPa 0,0 l/m 0,4 km/h (0 Bft) NO 49 5 min 0,000 mm 6,0 UV-I 520 W/m 9,0 C 24,7 C 4,0 km/h (1 Bft) 0,00 %
26.06.2015 12:30 25,0 C 32 % 1019,6 hPa 0,0 l/m 0,0 km/h (0 Bft) O-NO 62 5 min 0,000 mm 5,0 UV-I 543 W/m 7,1 C 25,0 C 0,0 km/h (0 Bft) 0,00 %
26.06.2015 12:35 25,2 C 34 % 1019,6 hPa 0,0 l/m 0,0 km/h (0 Bft) W-SW 256 0 min 0,000 mm 3,0 UV-I 476 W/m 8,2 C 25,2 C 0,0 km/h (0 Bft) 0,00 %
26.06.2015 12:40 25,1 C 34 % 1019,5 hPa 0,0 l/m 0,4 km/h (0 Bft) O 84 0 min 0,000 mm 3,0 UV-I 444 W/m 8,1 C 25,1 C 4,0 km/h (1 Bft) 0,00 %
26.06.2015 12:45 24,9 C 36 % 1019,6 hPa 0,0 l/m 0,4 km/h (0 Bft) NO 34 5 min 0,000 mm 3,0 UV-I 588 W/m 8,8 C 24,9 C 4,0 km/h (1 Bft) 0,00 %
26.06.2015 12:50 24,9 C 35 % 1019,5 hPa 0,0 l/m 1,4 km/h (1 Bft) N-NO 12 5 min 0,000 mm 3,0 UV-I 1046 W/m 8,4 C 24,9 C 4,0 km/h (1 Bft) 0,00 %
26.06.2015 12:55 24,6 C 41 % 1019,6 hPa 0,0 l/m 0,0 km/h (0 Bft) NO 44 5 min 0,000 mm 4,0 UV-I 1030 W/m 10,5 C 24,6 C 0,0 km/h (0 Bft) 0,00 %
26.06.2015 13:00 24,5 C 37 % 1019,5 hPa 0,0 l/m 0,0 km/h (0 Bft) NO 49 5 min 0,000 mm 6,0 UV-I 972 W/m 8,8 C 24,5 C 0,0 km/h (0 Bft) 0,00 %
26.06.2015 13:05 24,7 C 31 % 1019,4 hPa 0,0 l/m 3,2 km/h (1 Bft) W-SW 256 5 min 0,000 mm 6,0 UV-I 861 W/m 6,4 C 24,7 C 4,0 km/h (1 Bft) 0,00 %
26.06.2015 13:10 25,1 C 34 % 1019,2 hPa 0,0 l/m 0,4 km/h (0 Bft) NO 54 5 min 0,000 mm 5,0 UV-I 625 W/m 8,1 C 25,1 C 4,0 km/h (1 Bft) 0,00 %
26.06.2015 13:15 25,5 C 33 % 1019,1 hPa 0,0 l/m 0,0 km/h (0 Bft) N-NO 28 0 min 0,000 mm 4,0 UV-I 424 W/m 8,0 C 25,5 C 0,0 km/h (0 Bft) 0,00 %
26.06.2015 13:20 25,9 C 32 % 1019,0 hPa 0,0 l/m 0,0 km/h (0 Bft) N-NO 33 5 min 0,000 mm 3,0 UV-I 575 W/m 7,9 C 25,9 C 0,0 km/h (0 Bft) 0,00 %
26.06.2015 13:25 25,9 C 32 % 1018,8 hPa 0,0 l/m 4,7 km/h (1 Bft) W 268 0 min 0,000 mm 2,0 UV-I 450 W/m 7,9 C 25,9 C 7,9 km/h (2 Bft) 0,00 %
26.06.2015 13:30 25,4 C 33 % 1019,1 hPa 0,0 l/m 0,0 km/h (0 Bft) NO 44 0 min 0,000 mm 3,0 UV-I 429 W/m 7,9 C 25,4 C 0,0 km/h (0 Bft) 0,00 %
26.06.2015 13:35 24,9 C 34 % 1019,1 hPa 0,0 l/m 0,0 km/h (0 Bft) O-SO 110 5 min 0,000 mm 3,0 UV-I 904 W/m 7,9 C 24,9 C 0,0 km/h (0 Bft) 0,00 %
26.06.2015 13:40 24,6 C 36 % 1018,9 hPa 0,0 l/m 0,7 km/h (0 Bft) N-NO 27 5 min 0,000 mm 3,0 UV-I 939 W/m 8,5 C 24,6 C 4,0 km/h (1 Bft) 0,00 %
26.06.2015 13:45 24,3 C 35 % 1019,2 hPa 0,0 l/m 0,4 km/h (0 Bft) N-NO 33 5 min 0,000 mm 5,0 UV-I 914 W/m 7,8 C 24,3 C 4,0 km/h (1 Bft) 0,00 %
26.06.2015 13:50 24,3 C 37 % 1019,1 hPa 0,0 l/m 0,4 km/h (0 Bft) O-NO 58 5 min 0,000 mm 5,0 UV-I 940 W/m 8,7 C 24,3 C 4,0 km/h (1 Bft) 0,00 %
26.06.2015 13:55 24,7 C 30 % 1018,9 hPa 0,0 l/m 0,0 km/h (0 Bft) NO 48 5 min 0,000 mm 4,0 UV-I 1061 W/m 6,0 C 24,7 C 0,0 km/h (0 Bft) 0,00 %
26.06.2015 14:00 25,2 C 31 % 1018,7 hPa 0,0 l/m 0,4 km/h (0 Bft) NW 316 5 min 0,000 mm 5,0 UV-I 912 W/m 6,9 C 25,2 C 4,0 km/h (1 Bft) 0,00 %
26.06.2015 14:05 25,6 C 31 % 1018,8 hPa 0,0 l/m 2,2 km/h (1 Bft) W-SW 256 5 min 0,000 mm 6,0 UV-I 1019 W/m 7,2 C 25,6 C 4,0 km/h (1 Bft) 0,00 %
26.06.2015 14:10 25,8 C 32 % 1018,6 hPa 0,0 l/m 4,0 km/h (1 Bft) N-NW 328 5 min 0,000 mm 6,0 UV-I 983 W/m 7,8 C 25,8 C 7,9 km/h (2 Bft) 0,00 %
26.06.2015 14:15 25,9 C 34 % 1018,5 hPa 0,0 l/m 4,3 km/h (1 Bft) N-NO 20 5 min 0,000 mm 6,0 UV-I 997 W/m 8,8 C 25,9 C 7,9 km/h (2 Bft) 0,00 %
26.06.2015 14:20 25,8 C 31 % 1018,4 hPa 0,0 l/m 1,4 km/h (1 Bft) W 279 5 min 0,000 mm 5,0 UV-I 996 W/m 7,4 C 25,8 C 4,0 km/h (1 Bft) 0,00 %
26.06.2015 14:25 25,8 C 31 % 1018,3 hPa 0,0 l/m 2,9 km/h (1 Bft) N-NW 338 5 min 0,000 mm 5,0 UV-I 1070 W/m 7,4 C 25,8 C 7,9 km/h (2 Bft) 0,00 %
26.06.2015 14:30 25,9 C 30 % 1018,3 hPa 0,0 l/m 4,0 km/h (1 Bft) W 277 5 min 0,000 mm 5,0 UV-I 1049 W/m 7,0 C 25,9 C 4,0 km/h (1 Bft) 0,00 %
26.06.2015 14:35 26,1 C 30 % 1018,1 hPa 0,0 l/m 0,0 km/h (0 Bft) N-NO 18 5 min 0,000 mm 5,0 UV-I 675 W/m 7,2 C 26,1 C 0,0 km/h (0 Bft) 0,00 %
26.06.2015 14:40 26,4 C 31 % 1018,4 hPa 0,0 l/m 2,9 km/h (1 Bft) N-NW 343 0 min 0,000 mm 4,0 UV-I 370 W/m 7,9 C 26,4 C 4,0 km/h (1 Bft) 0,00 %
26.06.2015 14:45 26,5 C 29 % 1018,1 hPa 0,0 l/m 0,7 km/h (0 Bft) W-NW 300 5 min 0,000 mm 3,0 UV-I 625 W/m 7,0 C 26,5 C 4,0 km/h (1 Bft) 0,00 %
26.06.2015 14:50 26,5 C 28 % 1018,1 hPa 0,0 l/m 1,8 km/h (1 Bft) O 91 5 min 0,000 mm 2,0 UV-I 982 W/m 6,5 C 26,5 C 4,0 km/h (1 Bft) 0,00 %
26.06.2015 14:55 26,2 C 32 % 1018,2 hPa 0,0 l/m 0,7 km/h (0 Bft) O-NO 69 5 min 0,000 mm 5,0 UV-I 919 W/m 8,2 C 26,2 C 4,0 km/h (1 Bft) 0,00 %
26.06.2015 15:00 25,7 C 32 % 1018,1 hPa 0,0 l/m 0,0 km/h (0 Bft) NO 45 5 min 0,000 mm 5,0 UV-I 913 W/m 7,8 C 25,7 C 0,0 km/h (0 Bft) 0,00 %
26.06.2015 15:05 25,3 C 29 % 1018,3 hPa 0,0 l/m 4,0 km/h (1 Bft) N-NW 348 5 min 0,000 mm 5,0 UV-I 891 W/m 6,0 C 25,3 C 7,9 km/h (2 Bft) 0,00 %
26.06.2015 15:10 25,2 C 33 % 1018,3 hPa 0,0 l/m 0,0 km/h (0 Bft) NO 53 5 min 0,000 mm 5,0 UV-I 1004 W/m 7,8 C 25,2 C 0,0 km/h (0 Bft) 0,00 %
26.06.2015 15:15 25,4 C 30 % 1018,2 hPa 0,0 l/m 2,2 km/h (1 Bft) NO 47 5 min 0,000 mm 4,0 UV-I 793 W/m 6,6 C 25,4 C 4,0 km/h (1 Bft) 0,00 %
26.06.2015 15:20 25,9 C 27 % 1018,1 hPa 0,0 l/m 1,4 km/h (1 Bft) N-NO 21 5 min 0,000 mm 5,0 UV-I 809 W/m 5,5 C 25,9 C 4,0 km/h (1 Bft) 0,00 %
26.06.2015 15:25 26,3 C 32 % 1018,1 hPa 0,0 l/m 1,8 km/h (1 Bft) N 351 5 min 0,000 mm 4,0 UV-I 865 W/m 8,3 C 26,3 C 4,0 km/h (1 Bft) 0,00 %
26.06.2015 15:30 26,5 C 28 % 1018,1 hPa 0,0 l/m 0,4 km/h (0 Bft) NO 50 5 min 0,000 mm 4,0 UV-I 986 W/m 6,5 C 26,5 C 4,0 km/h (1 Bft) 0,00 %
26.06.2015 15:35 26,5 C 28 % 1017,8 hPa 0,0 l/m 2,2 km/h (1 Bft) W 275 5 min 0,000 mm 4,0 UV-I 873 W/m 6,5 C 26,5 C 7,9 km/h (2 Bft) 0,00 %
26.06.2015 15:40 26,4 C 30 % 1017,8 hPa 0,0 l/m 7,2 km/h (2 Bft) W 280 5 min 0,000 mm 4,0 UV-I 855 W/m 7,4 C 26,2 C 7,9 km/h (2 Bft) 0,00 %
26.06.2015 15:45 26,2 C 29 % 1017,9 hPa 0,0 l/m 2,9 km/h (1 Bft) N-NW 332 5 min 0,000 mm 4,0 UV-I 540 W/m 6,7 C 26,2 C 4,0 km/h (1 Bft) 0,00 %
26.06.2015 15:50 26,3 C 31 % 1017,9 hPa 0,0 l/m 1,8 km/h (1 Bft) W 278 5 min 0,000 mm 4,0 UV-I 524 W/m 7,8 C 26,3 C 4,0 km/h (1 Bft) 0,00 %
26.06.2015 15:55 26,4 C 31 % 1017,7 hPa 0,0 l/m 4,0 km/h (1 Bft) W 273 5 min 0,000 mm 3,0 UV-I 567 W/m 7,9 C 26,4 C 7,9 km/h (2 Bft) 0,00 %
26.06.2015 16:00 26,1 C 31 % 1017,9 hPa 0,0 l/m 1,8 km/h (1 Bft) N-NO 18 5 min 0,000 mm 2,0 UV-I 714 W/m 7,6 C 26,1 C 4,0 km/h (1 Bft) 0,00 %
26.06.2015 16:05 25,6 C 31 % 1018,0 hPa 0,0 l/m 0,0 km/h (0 Bft) NO 44 5 min 0,000 mm 3,0 UV-I 670 W/m 7,2 C 25,6 C 0,0 km/h (0 Bft) 0,00 %
26.06.2015 16:10 25,2 C 32 % 1018,1 hPa 0,0 l/m 0,0 km/h (0 Bft) NO 47 5 min 0,000 mm 3,0 UV-I 801 W/m 7,3 C 25,2 C 0,0 km/h (0 Bft) 0,00 %
26.06.2015 16:15 24,8 C 35 % 1018,2 hPa 0,0 l/m 1,4 km/h (1 Bft) W-NW 293 5 min 0,000 mm 3,0 UV-I 695 W/m 8,3 C 24,8 C 4,0 km/h (1 Bft) 0,00 %
26.06.2015 16:20 25,0 C 31 % 1018,0 hPa 0,0 l/m 3,2 km/h (1 Bft) W-SW 250 5 min 0,000 mm 3,0 UV-I 634 W/m 6,7 C 25,0 C 4,0 km/h (1 Bft) 0,00 %
26.06.2015 16:25 25,4 C 33 % 1017,9 hPa 0,0 l/m 0,0 km/h (0 Bft) N-NO 28 5 min 0,000 mm 3,0 UV-I 632 W/m 7,9 C 25,4 C 0,0 km/h (0 Bft) 0,00 %
26.06.2015 16:30 25,6 C 36 % 1017,8 hPa 0,0 l/m 0,0 km/h (0 Bft) NO 45 5 min 0,000 mm 3,0 UV-I 753 W/m 9,4 C 25,6 C 0,0 km/h (0 Bft) 0,00 %
26.06.2015 16:35 25,7 C 33 % 1017,7 hPa 0,0 l/m 0,0 km/h (0 Bft) NO 38 5 min 0,000 mm 2,0 UV-I 643 W/m 8,2 C 25,7 C 0,0 km/h (0 Bft) 0,00 %
26.06.2015 16:40 25,7 C 38 % 1017,7 hPa 0,0 l/m 5,4 km/h (1 Bft) W-NW 290 5 min 0,000 mm 3,0 UV-I 614 W/m 10,3 C 25,7 C 7,9 km/h (2 Bft) 0,00 %
26.06.2015 16:45 25,5 C 31 % 1017,8 hPa 0,0 l/m 3,2 km/h (1 Bft) W-SW 256 5 min 0,000 mm 2,0 UV-I 541 W/m 7,1 C 25,5 C 4,0 km/h (1 Bft) 0,00 %
26.06.2015 16:50 25,4 C 33 % 1017,7 hPa 0,0 l/m 0,0 km/h (0 Bft) N-NO 16 5 min 0,000 mm 2,0 UV-I 493 W/m 7,9 C 25,4 C 0,0 km/h (0 Bft) 0,00 %
26.06.2015 16:55 25,5 C 35 % 1017,8 hPa 0,0 l/m 5,8 km/h (2 Bft) W-SW 256 5 min 0,000 mm 2,0 UV-I 452 W/m 8,9 C 25,5 C 7,9 km/h (2 Bft) 0,00 %
26.06.2015 17:00 25,4 C 33 % 1017,7 hPa 0,0 l/m 0,0 km/h (0 Bft) NO 44 5 min 0,000 mm 2,0 UV-I 438 W/m 7,9 C 25,4 C 0,0 km/h (0 Bft) 0,00 %
26.06.2015 17:05 25,2 C 33 % 1017,6 hPa 0,0 l/m 0,0 km/h (0 Bft) W-SW 256 5 min 0,000 mm 2,0 UV-I 450 W/m 7,8 C 25,2 C 0,0 km/h (0 Bft) 0,00 %
26.06.2015 17:10 25,2 C 35 % 1017,8 hPa 0,0 l/m 0,0 km/h (0 Bft) N 349 5 min 0,000 mm 2,0 UV-I 477 W/m 8,6 C 25,2 C 0,0 km/h (0 Bft) 0,00 %
26.06.2015 17:15 25,2 C 36 % 1017,7 hPa 0,0 l/m 0,4 km/h (0 Bft) NW 323 5 min 0,000 mm 2,0 UV-I 519 W/m 9,1 C 25,2 C 4,0 km/h (1 Bft) 0,00 %
26.06.2015 17:20 25,0 C 33 % 1017,5 hPa 0,0 l/m 0,0 km/h (0 Bft) N 349 5 min 0,000 mm 2,0 UV-I 428 W/m 7,6 C 25,0 C 0,0 km/h (0 Bft) 0,00 %
26.06.2015 17:25 24,9 C 33 % 1017,6 hPa 0,0 l/m 0,0 km/h (0 Bft) N-NO 33 5 min 0,000 mm 2,0 UV-I 448 W/m 7,5 C 24,9 C 0,0 km/h (0 Bft) 0,00 %
26.06.2015 17:30 24,9 C 35 % 1017,7 hPa 0,0 l/m 0,0 km/h (0 Bft) NO 39 5 min 0,000 mm 2,0 UV-I 451 W/m 8,4 C 24,9 C 0,0 km/h (0 Bft) 0,00 %
26.06.2015 17:35 25,0 C 36 % 1017,7 hPa 0,0 l/m 0,0 km/h (0 Bft) NO 40 5 min 0,000 mm 2,0 UV-I 337 W/m 8,9 C 25,0 C 0,0 km/h (0 Bft) 0,00 %
26.06.2015 17:40 25,0 C 38 % 1017,6 hPa 0,0 l/m 5,8 km/h (2 Bft) N-NW 343 5 min 0,000 mm 2,0 UV-I 305 W/m 9,7 C 25,0 C 7,9 km/h (2 Bft) 0,00 %
26.06.2015 17:45 24,8 C 39 % 1017,5 hPa 0,0 l/m 0,7 km/h (0 Bft) W-NW 294 0 min 0,000 mm 2,0 UV-I 249 W/m 9,9 C 24,8 C 4,0 km/h (1 Bft) 0,00 %
26.06.2015 17:50 24,6 C 38 % 1017,5 hPa 0,0 l/m 10,4 km/h (2 Bft) W-SW 253 0 min 0,000 mm 1,0 UV-I 215 W/m 9,3 C 23,6 C 15,8 km/h (3 Bft) 0,00 %
26.06.2015 17:55 24,4 C 36 % 1017,7 hPa 0,0 l/m 0,0 km/h (0 Bft) O 96 0 min 0,000 mm 1,0 UV-I 193 W/m 8,4 C 24,4 C 0,0 km/h (0 Bft) 0,00 %
26.06.2015 18:00 24,2 C 40 % 1017,6 hPa 0,0 l/m 0,0 km/h (0 Bft) N 349 0 min 0,000 mm 1,0 UV-I 196 W/m 9,7 C 24,2 C 0,0 km/h (0 Bft) 0,00 %
26.06.2015 18:05 24,0 C 43 % 1017,6 hPa 0,0 l/m 0,0 km/h (0 Bft) NO 41 0 min 0,000 mm 1,0 UV-I 187 W/m 10,6 C 24,0 C 0,0 km/h (0 Bft) 0,00 %
26.06.2015 18:10 23,8 C 43 % 1017,8 hPa 0,0 l/m 0,0 km/h (0 Bft) NO 49 0 min 0,000 mm 1,0 UV-I 163 W/m 10,5 C 23,8 C 0,0 km/h (0 Bft) 0,00 %
26.06.2015 18:15 23,5 C 42 % 1017,6 hPa 0,0 l/m 0,0 km/h (0 Bft) N 354 0 min 0,000 mm 1,0 UV-I 152 W/m 9,8 C 23,5 C 0,0 km/h (0 Bft) 0,00 %
26.06.2015 18:20 23,5 C 41 % 1017,5 hPa 0,0 l/m 0,0 km/h (0 Bft) NO 48 0 min 0,000 mm 1,0 UV-I 145 W/m 9,5 C 23,5 C 0,0 km/h (0 Bft) 0,00 %
26.06.2015 18:25 23,5 C 44 % 1017,5 hPa 0,0 l/m 0,0 km/h (0 Bft) N-NO 24 0 min 0,000 mm 1,0 UV-I 140 W/m 10,5 C 23,5 C 0,0 km/h (0 Bft) 0,00 %
26.06.2015 18:30 23,5 C 42 % 1017,5 hPa 0,0 l/m 0,0 km/h (0 Bft) NO 50 0 min 0,000 mm 1,0 UV-I 125 W/m 9,8 C 23,5 C 0,0 km/h (0 Bft) 0,00 %
26.06.2015 18:35 23,4 C 43 % 1017,6 hPa 0,0 l/m 0,0 km/h (0 Bft) N-NW 346 0 min 0,000 mm 1,0 UV-I 110 W/m 10,1 C 23,4 C 0,0 km/h (0 Bft) 0,00 %
26.06.2015 18:40 23,4 C 46 % 1017,7 hPa 0,0 l/m 0,0 km/h (0 Bft) N-NO 27 0 min 0,000 mm 1,0 UV-I 94 W/m 11,1 C 23,4 C 0,0 km/h (0 Bft) 0,00 %
26.06.2015 18:45 23,3 C 43 % 1017,7 hPa 0,0 l/m 0,0 km/h (0 Bft) N 355 0 min 0,000 mm 1,0 UV-I 84 W/m 10,0 C 23,3 C 0,0 km/h (0 Bft) 0,00 %
26.06.2015 18:50 23,1 C 45 % 1017,6 hPa 0,0 l/m 0,0 km/h (0 Bft) N 355 0 min 0,000 mm 1,0 UV-I 77 W/m 10,5 C 23,1 C 0,0 km/h (0 Bft) 0,00 %
26.06.2015 18:55 23,0 C 46 % 1017,7 hPa 0,0 l/m 0,0 km/h (0 Bft) NO 41 0 min 0,000 mm 1,0 UV-I 77 W/m 10,7 C 23,0 C 0,0 km/h (0 Bft) 0,00 %
26.06.2015 19:00 22,8 C 48 % 1017,7 hPa 0,0 l/m 0,0 km/h (0 Bft) N 349 0 min 0,000 mm 0,0 UV-I 72 W/m 11,2 C 22,8 C 0,0 km/h (0 Bft) 0,00 %
26.06.2015 19:05 22,6 C 48 % 1017,7 hPa 0,0 l/m 0,0 km/h (0 Bft) NO 41 0 min 0,000 mm 0,0 UV-I 71 W/m 11,0 C 22,6 C 0,0 km/h (0 Bft) 0,00 %
26.06.2015 19:10 22,4 C 46 % 1017,8 hPa 0,0 l/m 0,0 km/h (0 Bft) N 353 0 min 0,000 mm 0,0 UV-I 69 W/m 10,2 C 22,4 C 0,0 km/h (0 Bft) 0,00 %
26.06.2015 19:15 22,1 C 47 % 1017,8 hPa 0,0 l/m 0,0 km/h (0 Bft) NO 41 0 min 0,000 mm 0,0 UV-I 67 W/m 10,3 C 22,1 C 0,0 km/h (0 Bft) 0,00 %
26.06.2015 19:20 22,0 C 48 % 1017,8 hPa 0,0 l/m 0,0 km/h (0 Bft) NO 36 0 min 0,000 mm 0,0 UV-I 62 W/m 10,5 C 22,0 C 0,0 km/h (0 Bft) 0,00 %
26.06.2015 19:25 21,9 C 48 % 1017,9 hPa 0,0 l/m 0,0 km/h (0 Bft) NO 54 0 min 0,000 mm 0,0 UV-I 63 W/m 10,4 C 21,9 C 0,0 km/h (0 Bft) 0,00 %
26.06.2015 19:30 21,7 C 48 % 1017,9 hPa 0,0 l/m 0,0 km/h (0 Bft) NO 55 0 min 0,000 mm 0,0 UV-I 59 W/m 10,2 C 21,7 C 0,0 km/h (0 Bft) 0,00 %
26.06.2015 19:35 21,6 C 49 % 1017,8 hPa 0,0 l/m 0,0 km/h (0 Bft) NO 46 0 min 0,000 mm 0,0 UV-I 50 W/m 10,4 C 21,6 C 0,0 km/h (0 Bft) 0,00 %
26.06.2015 19:40 21,4 C 50 % 1017,9 hPa 0,0 l/m 0,0 km/h (0 Bft) N-NO 27 0 min 0,000 mm 0,0 UV-I 41 W/m 10,5 C 21,4 C 0,0 km/h (0 Bft) 0,00 %
26.06.2015 19:45 21,4 C 49 % 1017,8 hPa 0,0 l/m 0,0 km/h (0 Bft) NO 41 0 min 0,000 mm 0,0 UV-I 37 W/m 10,2 C 21,4 C 0,0 km/h (0 Bft) 0,00 %
26.06.2015 19:50 21,3 C 49 % 1017,8 hPa 0,0 l/m 0,0 km/h (0 Bft) NO 47 0 min 0,000 mm 0,0 UV-I 27 W/m 10,1 C 21,3 C 0,0 km/h (0 Bft) 0,00 %
26.06.2015 19:55 21,3 C 49 % 1017,7 hPa 0,0 l/m 0,0 km/h (0 Bft) NO 44 0 min 0,000 mm 0,0 UV-I 21 W/m 10,1 C 21,3 C 0,0 km/h (0 Bft) 0,00 %
26.06.2015 20:00 21,2 C 50 % 1017,9 hPa 0,0 l/m 0,0 km/h (0 Bft) NO 41 0 min 0,000 mm 0,0 UV-I 17 W/m 10,4 C 21,2 C 0,0 km/h (0 Bft) 0,00 %
26.06.2015 20:05 21,1 C 51 % 1017,9 hPa 0,0 l/m 0,0 km/h (0 Bft) NO 38 0 min 0,000 mm 0,0 UV-I 16 W/m 10,6 C 21,1 C 0,0 km/h (0 Bft) 0,00 %
26.06.2015 20:10 21,0 C 51 % 1017,9 hPa 0,0 l/m 0,0 km/h (0 Bft) O-NO 58 0 min 0,000 mm 0,0 UV-I 10 W/m 10,5 C 21,0 C 0,0 km/h (0 Bft) 0,00 %
26.06.2015 20:15 20,9 C 54 % 1018,0 hPa 0,0 l/m 0,0 km/h (0 Bft) NO 46 0 min 0,000 mm 0,0 UV-I 7 W/m 11,2 C 20,9 C 0,0 km/h (0 Bft) 0,00 %
26.06.2015 20:20 20,8 C 53 % 1017,8 hPa 0,0 l/m 0,0 km/h (0 Bft) NO 44 0 min 0,000 mm 0,0 UV-I 4 W/m 10,9 C 20,8 C 0,0 km/h (0 Bft) 0,00 %
26.06.2015 20:25 20,7 C 57 % 1018,0 hPa 0,0 l/m 0,0 km/h (0 Bft) NO 49 0 min 0,000 mm 0,0 UV-I 4 W/m 11,9 C 20,7 C 0,0 km/h (0 Bft) 0,00 %
26.06.2015 20:30 20,6 C 57 % 1017,8 hPa 0,0 l/m 0,0 km/h (0 Bft) NO 46 0 min 0,000 mm 0,0 UV-I 4 W/m 11,8 C 20,6 C 0,0 km/h (0 Bft) 0,00 %
26.06.2015 20:35 20,4 C 59 % 1018,0 hPa 0,0 l/m 0,0 km/h (0 Bft) O-NO 67 0 min 0,000 mm 0,0 UV-I 4 W/m 12,1 C 20,4 C 0,0 km/h (0 Bft) 0,00 %
26.06.2015 20:40 20,3 C 59 % 1017,9 hPa 0,0 l/m 0,0 km/h (0 Bft) NO 51 0 min 0,000 mm 0,0 UV-I 1 W/m 12,0 C 20,3 C 0,0 km/h (0 Bft) 0,00 %
26.06.2015 20:45 20,1 C 59 % 1017,9 hPa 0,0 l/m 0,0 km/h (0 Bft) NO 51 0 min 0,000 mm 0,0 UV-I 0 W/m 11,8 C 20,1 C 0,0 km/h (0 Bft) 0,00 %
26.06.2015 20:50 20,0 C 60 % 1018,0 hPa 0,0 l/m 0,0 km/h (0 Bft) NO 51 0 min 0,000 mm 0,0 UV-I 0 W/m 12,0 C 20,0 C 0,0 km/h (0 Bft) 0,00 %
26.06.2015 20:55 19,9 C 61 % 1018,1 hPa 0,0 l/m 0,0 km/h (0 Bft) NO 51 0 min 0,000 mm 0,0 UV-I 0 W/m 12,2 C 19,9 C 0,0 km/h (0 Bft) 0,00 %
26.06.2015 21:00 19,8 C 63 % 1018,1 hPa 0,0 l/m 0,0 km/h (0 Bft) NO 51 0 min 0,000 mm 0,0 UV-I 0 W/m 12,5 C 19,8 C 0,0 km/h (0 Bft) 0,00 %
26.06.2015 21:05 19,7 C 63 % 1018,1 hPa 0,0 l/m 0,0 km/h (0 Bft) NO 51 0 min 0,000 mm 0,0 UV-I 0 W/m 12,5 C 19,7 C 0,0 km/h (0 Bft) 0,00 %
26.06.2015 21:10 19,6 C 62 % 1018,2 hPa 0,0 l/m 0,0 km/h (0 Bft) NO 51 0 min 0,000 mm 0,0 UV-I 0 W/m 12,1 C 19,6 C 0,0 km/h (0 Bft) 0,00 %
26.06.2015 21:15 19,5 C 63 % 1018,2 hPa 0,0 l/m 0,0 km/h (0 Bft) NO 51 0 min 0,000 mm 0,0 UV-I 0 W/m 12,3 C 19,5 C 0,0 km/h (0 Bft) 0,00 %
26.06.2015 21:20 19,3 C 65 % 1018,1 hPa 0,0 l/m 0,0 km/h (0 Bft) NO 51 0 min 0,000 mm 0,0 UV-I 0 W/m 12,6 C 19,3 C 0,0 km/h (0 Bft) 0,00 %
26.06.2015 21:25 19,2 C 63 % 1018,4 hPa 0,0 l/m 0,0 km/h (0 Bft) NO 51 0 min 0,000 mm 0,0 UV-I 0 W/m 12,0 C 19,2 C 0,0 km/h (0 Bft) 0,00 %
26.06.2015 21:30 19,1 C 65 % 1018,3 hPa 0,0 l/m 0,0 km/h (0 Bft) NO 51 0 min 0,000 mm 0,0 UV-I 0 W/m 12,4 C 19,1 C 0,0 km/h (0 Bft) 0,00 %
26.06.2015 21:35 19,0 C 67 % 1018,3 hPa 0,0 l/m 0,0 km/h (0 Bft) NO 51 0 min 0,000 mm 0,0 UV-I 0 W/m 12,7 C 19,0 C 0,0 km/h (0 Bft) 0,00 %
26.06.2015 21:40 18,9 C 66 % 1018,3 hPa 0,0 l/m 0,0 km/h (0 Bft) NO 51 0 min 0,000 mm 0,0 UV-I 0 W/m 12,4 C 18,9 C 0,0 km/h (0 Bft) 0,00 %
26.06.2015 21:45 18,8 C 68 % 1018,4 hPa 0,0 l/m 0,0 km/h (0 Bft) NO 51 0 min 0,000 mm 0,0 UV-I 0 W/m 12,8 C 18,8 C 0,0 km/h (0 Bft) 0,00 %
26.06.2015 21:50 18,7 C 62 % 1018,4 hPa 0,0 l/m 0,0 km/h (0 Bft) O-NO 66 0 min 0,000 mm 0,0 UV-I 0 W/m 11,3 C 18,7 C 0,0 km/h (0 Bft) 0,00 %
26.06.2015 21:55 18,6 C 65 % 1018,5 hPa 0,0 l/m 0,0 km/h (0 Bft) O-NO 66 0 min 0,000 mm 0,0 UV-I 0 W/m 11,9 C 18,6 C 0,0 km/h (0 Bft) 0,00 %
26.06.2015 22:00 18,6 C 66 % 1018,2 hPa 0,0 l/m 0,0 km/h (0 Bft) O-NO 66 0 min 0,000 mm 0,0 UV-I 0 W/m 12,1 C 18,6 C 0,0 km/h (0 Bft) 0,00 %
26.06.2015 22:05 18,6 C 67 % 1018,4 hPa 0,0 l/m 0,0 km/h (0 Bft) O-NO 66 0 min 0,000 mm 0,0 UV-I 0 W/m 12,3 C 18,6 C 0,0 km/h (0 Bft) 0,00 %
26.06.2015 22:10 18,5 C 68 % 1018,3 hPa 0,0 l/m 0,0 km/h (0 Bft) O-NO 66 0 min 0,000 mm 0,0 UV-I 0 W/m 12,5 C 18,5 C 0,0 km/h (0 Bft) 0,00 %
26.06.2015 22:15 18,4 C 68 % 1018,6 hPa 0,0 l/m 0,0 km/h (0 Bft) NO 37 0 min 0,000 mm 0,0 UV-I 0 W/m 12,4 C 18,4 C 0,0 km/h (0 Bft) 0,00 %
26.06.2015 22:20 18,3 C 67 % 1018,5 hPa 0,0 l/m 0,0 km/h (0 Bft) NO 45 0 min 0,000 mm 0,0 UV-I 0 W/m 12,1 C 18,3 C 0,0 km/h (0 Bft) 0,00 %
26.06.2015 22:25 18,2 C 65 % 1018,5 hPa 0,0 l/m 0,0 km/h (0 Bft) NO 40 0 min 0,000 mm 0,0 UV-I 0 W/m 11,5 C 18,2 C 0,0 km/h (0 Bft) 0,00 %
26.06.2015 22:30 18,0 C 64 % 1018,5 hPa 0,0 l/m 0,0 km/h (0 Bft) NO 45 0 min 0,000 mm 0,0 UV-I 0 W/m 11,1 C 18,0 C 0,0 km/h (0 Bft) 0,00 %
26.06.2015 22:35 18,0 C 64 % 1018,5 hPa 0,0 l/m 0,0 km/h (0 Bft) NO 40 0 min 0,000 mm 0,0 UV-I 0 W/m 11,1 C 18,0 C 0,0 km/h (0 Bft) 0,00 %
26.06.2015 22:40 18,0 C 65 % 1018,4 hPa 0,0 l/m 0,0 km/h (0 Bft) NO 44 0 min 0,000 mm 0,0 UV-I 0 W/m 11,3 C 18,0 C 0,0 km/h (0 Bft) 0,00 %
26.06.2015 22:45 18,0 C 67 % 1018,3 hPa 0,0 l/m 0,0 km/h (0 Bft) NO 46 0 min 0,000 mm 0,0 UV-I 0 W/m 11,8 C 18,0 C 0,0 km/h (0 Bft) 0,00 %
26.06.2015 22:50 18,0 C 66 % 1018,5 hPa 0,0 l/m 0,0 km/h (0 Bft) NO 46 0 min 0,000 mm 0,0 UV-I 0 W/m 11,6 C 18,0 C 0,0 km/h (0 Bft) 0,00 %
26.06.2015 22:55 17,9 C 69 % 1018,5 hPa 0,0 l/m 0,0 km/h (0 Bft) NO 47 0 min 0,000 mm 0,0 UV-I 0 W/m 12,1 C 17,9 C 0,0 km/h (0 Bft) 0,00 %
26.06.2015 23:00 17,8 C 69 % 1018,3 hPa 0,0 l/m 0,0 km/h (0 Bft) NO 44 0 min 0,000 mm 0,0 UV-I 0 W/m 12,0 C 17,8 C 0,0 km/h (0 Bft) 0,00 %
26.06.2015 23:05 17,7 C 69 % 1018,4 hPa 0,0 l/m 0,0 km/h (0 Bft) NO 43 0 min 0,000 mm 0,0 UV-I 0 W/m 11,9 C 17,7 C 0,0 km/h (0 Bft) 0,00 %
26.06.2015 23:10 17,7 C 69 % 1018,3 hPa 0,0 l/m 0,0 km/h (0 Bft) NO 45 0 min 0,000 mm 0,0 UV-I 0 W/m 11,9 C 17,7 C 0,0 km/h (0 Bft) 0,00 %
26.06.2015 23:15 17,6 C 68 % 1018,2 hPa 0,0 l/m 0,0 km/h (0 Bft) NO 45 0 min 0,000 mm 0,0 UV-I 0 W/m 11,6 C 17,6 C 0,0 km/h (0 Bft) 0,00 %
26.06.2015 23:20 17,6 C 68 % 1018,1 hPa 0,0 l/m 0,0 km/h (0 Bft) NO 44 0 min 0,000 mm 0,0 UV-I 0 W/m 11,6 C 17,6 C 0,0 km/h (0 Bft) 0,00 %
26.06.2015 23:25 17,6 C 68 % 1018,0 hPa 0,0 l/m 0,0 km/h (0 Bft) NO 42 0 min 0,000 mm 0,0 UV-I 0 W/m 11,6 C 17,6 C 0,0 km/h (0 Bft) 0,00 %
26.06.2015 23:30 17,6 C 68 % 1018,1 hPa 0,0 l/m 0,0 km/h (0 Bft) NO 35 0 min 0,000 mm 0,0 UV-I 0 W/m 11,6 C 17,6 C 0,0 km/h (0 Bft) 0,00 %
26.06.2015 23:35 17,6 C 67 % 1018,2 hPa 0,0 l/m 0,0 km/h (0 Bft) NO 45 0 min 0,000 mm 0,0 UV-I 0 W/m 11,4 C 17,6 C 0,0 km/h (0 Bft) 0,00 %
26.06.2015 23:40 17,6 C 68 % 1018,1 hPa 0,0 l/m 0,0 km/h (0 Bft) NO 44 0 min 0,000 mm 0,0 UV-I 0 W/m 11,6 C 17,6 C 0,0 km/h (0 Bft) 0,00 %
26.06.2015 23:45 17,5 C 68 % 1018,0 hPa 0,0 l/m 0,0 km/h (0 Bft) NO 45 0 min 0,000 mm 0,0 UV-I 0 W/m 11,5 C 17,5 C 0,0 km/h (0 Bft) 0,00 %
26.06.2015 23:50 17,5 C 68 % 1018,1 hPa 0,0 l/m 0,0 km/h (0 Bft) NO 41 0 min 0,000 mm 0,0 UV-I 0 W/m 11,5 C 17,5 C 0,0 km/h (0 Bft) 0,00 %
26.06.2015 23:55 17,4 C 68 % 1018,0 hPa 0,0 l/m 0,0 km/h (0 Bft) NO 41 0 min 0,000 mm 0,0 UV-I 0 W/m 11,4 C 17,4 C 0,0 km/h (0 Bft) 0,00 %
_ Min-Zeit 04:35 15:20 17:20 - 00:00 - - - - - - 15:20 04:35 00:00 00:00
Minimum _ 9,6 C 27 % 1017,5 hPa - 0,0 km/h (0 Bft) - - - - - - 5,5 C 9,6 C 0,0 km/h (0 Bft) 0,00 %
_ Max-Zeit 14:45 05:10 02:30 00:00 17:50 - - 05:40 00:00 12:20 14:25 21:45 14:45 17:50 00:00
Maximum _ 26,5 C 93 % 1023,4 hPa 0,0 l/m 10,4 km/h
W-SW (2 Bft)
- - 5 min 0,000 mm 6,0 UV-I 1070 W/m 12,8 C 26,5 C 15,8 km/h
W-SW (3 Bft)
0,00 %
Durchschnitt _ 19,1 C 58 % 1020,3 hPa #0,0 l/m 0,6 km/h (0 Bft) W-SW - #11:20 h #0,000 mm 2,9 UV-I 491 W/m 9,5 C 19,1 C 1,3 km/h (1 Bft) 0,00 %